Weather History for Fort Polk, LA

Change the Weather History Date:

Monday, February 10, 2014

  Actual Average Record
Temperature  
Mean Temperature 44 °F -  
Max Temperature 55 °F 60 °F 78 °F (1999)
Min Temperature 33 °F 42 °F 25 °F (2011)
Degree Days  
Heating Degree Days 21    
Moisture  
Dew Point 41 °F    
Average Humidity 96    
Maximum Humidity 100    
Minimum Humidity 87    
Precipitation  
Precipitation 1.58 in - - ()
Sea Level Pressure  
Sea Level Pressure 30.11 in    
Wind  
Wind Speed 7 mph (NNE)    
Max Wind Speed 14 mph    
Max Gust Speed 21 mph    
Visibility 4 miles    
Events Fog , Rain    
Averages and records for this station are not official NWS values.
T = Trace of Precipitation, MM = Missing Value Source: NWS Daily Summary

Daily Weather History Graph

Daily Weather History Graph

Search for Another Location

Airport:

Trip Planner

Search our weather history database for the weather conditions in past years. The results will help you decide how hot, cold, wet, or windy it might be!

Date:

Astronomy

Feb. 10, 2014 Rise Set
Actual Time 6:58 AM CST 5:56 PM CST
Civil Twilight 6:33 AM CST 6:21 PM CST
Nautical Twilight 6:04 AM CST 6:49 PM CST
Astronomical Twilight 5:36 AM CST 7:18 PM CST
Moon 2:31 PM CST (2/10) 3:45 AM CST (2/10)
Length of Visible Light 11h 47m
Length of Day
10h 58m
Waxing Gibbous, 85% of the Moon is Illuminated
Feb 10
Waxing Gibbous
Feb 14
Full
Feb 22
Last Quarter
Mar 1
New
Mar 8
First Quarter

Hourly Weather History & Observations

Time (CST) Temp. Windchill Dew Point Humidity Pressure Visibility Wind Dir Wind Speed Gust Speed Precip Events Conditions
12:05 AM 55.4 °F - 55.4 °F 100% 30.07 in 2.5 mi NNE 3.5 mph - N/A   Overcast
12:24 AM 55.4 °F - 55.4 °F 100% 30.07 in 1.5 mi Calm Calm - N/A   Overcast
12:32 AM 55.4 °F - 55.4 °F 100% 30.07 in 1.0 mi Calm Calm - N/A   Overcast
12:47 AM 55.4 °F - 55.4 °F 100% 30.07 in 0.8 mi Calm Calm - 0.00 in Rain Light Rain
12:55 AM 55.9 °F - 55.0 °F 97% 30.08 in 0.8 mi Calm Calm - 0.00 in   Mist
1:04 AM 55.4 °F - 55.4 °F 100% 30.06 in 0.5 mi ENE 3.5 mph - 0.00 in Fog , Rain Light Rain
1:40 AM 55.4 °F - 55.4 °F 100% 30.05 in 0.8 mi East 3.5 mph - 0.01 in Rain Light Rain
1:55 AM 55.9 °F - 55.0 °F 97% 30.06 in 0.8 mi Calm Calm - 0.01 in   Mist
2:35 AM 55.4 °F - 55.4 °F 100% 30.04 in 1.0 mi ENE 3.5 mph - N/A   Mist
2:48 AM 55.4 °F - 55.4 °F 100% 30.04 in 1.2 mi NNE 5.8 mph - N/A   Overcast
2:55 AM 55.0 °F - 55.0 °F 100% 30.05 in 1.2 mi NNE 6.9 mph - N/A   Overcast
3:02 AM 53.6 °F - 53.6 °F 100% 30.05 in 1.8 mi NNE 9.2 mph - 0.00 in Rain Light Rain
3:26 AM 50.0 °F - 50.0 °F 100% 30.05 in 2.5 mi NE 11.5 mph - 0.00 in Rain Light Rain
3:39 AM 50.0 °F - 48.2 °F 94% 30.05 in 3.0 mi NNE 8.1 mph - 0.01 in Rain Light Rain
3:55 AM 48.0 °F - 46.9 °F 96% 30.06 in 2.5 mi NNE 8.1 mph - 0.01 in Rain Light Rain
4:02 AM 46.4 °F 42.4 °F 46.4 °F 100% 30.06 in 3.0 mi NE 8.1 mph - 0.00 in Rain Light Rain
4:14 AM 46.4 °F 41.1 °F 46.4 °F 100% 30.06 in 2.5 mi NNE 11.5 mph - 0.02 in Rain Rain
4:28 AM 44.6 °F 40.7 °F 44.6 °F 100% 30.06 in 3.0 mi NE 6.9 mph - 0.06 in Rain Heavy Rain
4:42 AM 44.6 °F 38.8 °F 44.6 °F 100% 30.06 in 7.0 mi NE 11.5 mph - 0.07 in Rain Light Rain
4:55 AM 45.0 °F 39.7 °F 44.1 °F 97% 30.07 in 10.0 mi NE 10.4 mph - 0.07 in   Overcast
5:55 AM 44.1 °F 39.5 °F 43.0 °F 96% 30.10 in 5.0 mi NE 8.1 mph - 0.02 in Rain Light Rain
6:55 AM 43.0 °F 38.2 °F 42.1 °F 97% 30.12 in 9.0 mi NE 8.1 mph - 0.00 in   Overcast
7:55 AM 42.1 °F 37.1 °F 41.0 °F 96% 30.14 in 10.0 mi NE 8.1 mph - N/A   Overcast
8:17 AM 42.8 °F 38.6 °F 39.2 °F 87% 30.13 in 9.0 mi NE 6.9 mph 18.4 mph 0.01 in Rain Light Rain
8:51 AM 41.0 °F 36.4 °F 39.2 °F 93% 30.14 in 7.0 mi NNE 6.9 mph - 0.01 in Rain Light Rain
8:55 AM 41.0 °F 35.8 °F 41.0 °F 100% 30.16 in 6.0 mi NNE 8.1 mph - 0.01 in Rain Light Rain
9:55 AM 39.9 °F 35.1 °F 39.0 °F 97% 30.17 in 6.0 mi NE 6.9 mph - 0.01 in Rain Light Rain
10:11 AM 39.2 °F 32.0 °F 39.2 °F 100% 30.16 in 4.0 mi NE 11.5 mph 20.7 mph 0.00 in Rain Light Rain
10:55 AM 39.9 °F 34.5 °F 39.0 °F 97% 30.18 in 3.0 mi NNE 8.1 mph - 0.01 in Rain Light Rain
11:07 AM 39.2 °F 33.6 °F 39.2 °F 100% 30.16 in 2.5 mi NNE 8.1 mph - 0.01 in Rain Light Rain
11:16 AM 39.2 °F 33.0 °F 39.2 °F 100% 30.15 in 5.0 mi NE 9.2 mph - 0.02 in Rain Light Rain
11:34 AM 39.2 °F 33.6 °F 39.2 °F 100% 30.14 in 2.5 mi NE 8.1 mph - 0.04 in Rain Light Rain
11:43 AM 39.2 °F 33.0 °F 39.2 °F 100% 30.14 in 5.0 mi NE 9.2 mph - 0.04 in Rain Light Rain
11:55 AM 39.9 °F 33.4 °F 37.9 °F 93% 30.15 in 8.0 mi NE 10.4 mph - 0.05 in Rain Light Rain
12:09 PM 39.2 °F 33.0 °F 37.4 °F 93% 30.12 in 2.5 mi NE 9.2 mph 17.3 mph 0.03 in Rain Rain
12:22 PM 39.2 °F 34.2 °F 37.4 °F 93% 30.13 in 3.0 mi NE 6.9 mph - 0.04 in Rain Light Rain
12:55 PM 39.9 °F 33.9 °F 37.9 °F 93% 30.13 in 5.0 mi NE 9.2 mph - 0.04 in Rain Light Rain
1:22 PM 39.2 °F 33.0 °F 37.4 °F 93% 30.11 in 2.5 mi NNE 9.2 mph - 0.05 in Rain Rain
1:30 PM 39.2 °F 33.0 °F 37.4 °F 93% 30.10 in 5.0 mi NE 9.2 mph - 0.07 in Rain Rain
1:39 PM 39.2 °F 33.0 °F 37.4 °F 93% 30.10 in 6.0 mi NE 9.2 mph 19.6 mph 0.08 in Rain Rain
1:50 PM 39.0 °F 34.0 °F 37.9 °F 96% 30.12 in 1.8 mi North 6.9 mph - 0.13 in Rain Heavy Rain
1:57 PM 39.2 °F 32.5 °F 37.4 °F 93% 30.10 in 2.0 mi North 10.4 mph 16.1 mph 0.02 in Rain Rain
2:04 PM 39.2 °F 33.6 °F 37.4 °F 93% 30.10 in 3.0 mi NE 8.1 mph - 0.03 in Rain Light Rain
2:10 PM 39.2 °F 34.2 °F 39.2 °F 100% 30.10 in 2.5 mi NNE 6.9 mph - 0.05 in Rain Rain
2:17 PM 39.2 °F 33.0 °F 39.2 °F 100% 30.10 in 2.0 mi NNE 9.2 mph - 0.07 in Rain Heavy Rain
2:27 PM 39.2 °F 32.5 °F 37.4 °F 93% 30.09 in 7.0 mi NNE 10.4 mph 16.1 mph 0.07 in Rain Light Rain
2:47 PM 39.2 °F 35.0 °F 37.4 °F 93% 30.09 in 6.0 mi NE 5.8 mph - 0.09 in Rain Light Rain
2:55 PM 39.0 °F 33.4 °F 37.9 °F 96% 30.10 in 5.0 mi NE 8.1 mph - 0.09 in Rain Light Rain
3:38 PM 39.2 °F 32.0 °F 37.4 °F 93% 30.08 in 1.8 mi NNE 11.5 mph 16.1 mph 0.07 in Rain Heavy Rain
3:50 PM 39.2 °F 35.0 °F 37.4 °F 93% 30.09 in 3.0 mi NNE 5.8 mph - 0.10 in Rain Rain
3:55 PM 39.0 °F 33.4 °F 37.9 °F 96% 30.12 in 5.0 mi North 8.1 mph - 0.10 in Rain Light Rain
4:15 PM 39.2 °F 32.5 °F 37.4 °F 93% 30.09 in 2.5 mi NE 10.4 mph 18.4 mph 0.04 in Rain Rain
4:23 PM 39.2 °F 32.0 °F 37.4 °F 93% 30.08 in 4.0 mi NNE 11.5 mph - 0.05 in Rain Rain
4:38 PM 37.4 °F 29.8 °F 37.4 °F 100% 30.09 in 5.0 mi NNE 11.5 mph 19.6 mph 0.06 in Rain Light Rain
4:45 PM 37.4 °F 29.8 °F 37.4 °F 100% 30.08 in 1.8 mi NE 11.5 mph 19.6 mph 0.13 in Rain Heavy Rain
4:55 PM 37.9 °F 32.7 °F 37.0 °F 97% 30.12 in 1.8 mi North 6.9 mph - 0.17 in Rain Heavy Rain
5:02 PM 37.4 °F 31.4 °F 37.4 °F 100% 30.11 in 2.5 mi North 8.1 mph - 0.02 in Rain Rain
5:10 PM 37.4 °F 30.3 °F 37.4 °F 100% 30.10 in 3.0 mi NNE 10.4 mph - 0.05 in Rain Heavy Rain
5:18 PM 37.4 °F 30.8 °F 37.4 °F 100% 30.11 in 2.0 mi NNE 9.2 mph - 0.08 in Rain Heavy Rain
5:27 PM 37.4 °F 30.3 °F 35.6 °F 93% 30.11 in 2.0 mi NNE 10.4 mph - 0.13 in Rain Heavy Rain
5:34 PM 37.4 °F 30.3 °F 35.6 °F 93% 30.11 in 1.2 mi NE 10.4 mph - 0.16 in Rain Heavy Rain
5:39 PM 37.4 °F 29.8 °F 35.6 °F 93% 30.11 in 2.0 mi NE 11.5 mph - 0.17 in Rain Rain
5:48 PM 37.4 °F 29.8 °F 35.6 °F 93% 30.11 in 1.8 mi NNE 11.5 mph - 0.19 in Rain Rain
5:50 PM 37.4 °F 29.8 °F 35.6 °F 93% 30.11 in 2.0 mi NNE 11.5 mph - 0.20 in Rain Rain
5:55 PM 37.0 °F 31.0 °F 36.0 °F 96% 30.12 in 2.5 mi NE 8.1 mph 16.1 mph 0.20 in Rain Rain
5:58 PM 37.4 °F 30.8 °F 35.6 °F 93% 30.11 in 3.0 mi NE 9.2 mph - 0.01 in Rain Rain
6:12 PM 37.4 °F 31.4 °F 35.6 °F 93% 30.11 in 2.0 mi NNE 8.1 mph - 0.09 in Rain Heavy Rain
6:44 PM 37.4 °F 30.3 °F 35.6 °F 93% 30.11 in 4.0 mi NE 10.4 mph - 0.18 in Rain Light Rain
6:55 PM 37.0 °F 31.0 °F 35.1 °F 93% 30.13 in 4.0 mi NE 8.1 mph - 0.18 in Rain Light Rain
7:55 PM 36.0 °F 30.3 °F 35.1 °F 97% 30.15 in 8.0 mi NE 6.9 mph - 0.07 in Rain Light Rain
8:55 PM 35.1 °F 27.4 °F 34.0 °F 96% 30.13 in 7.0 mi NE 10.4 mph - 0.00 in Rain Light Rain
9:19 PM 35.6 °F 28.0 °F 33.8 °F 93% 30.12 in 9.0 mi NE 10.4 mph 19.6 mph 0.00 in   Overcast
9:55 PM 34.0 °F 25.5 °F 33.1 °F 96% 30.16 in 3.0 mi NNE 11.5 mph 18.4 mph 0.08 in Rain Heavy Rain
10:03 PM 33.8 °F 24.3 °F 32.0 °F 93% 30.12 in 2.5 mi NNE 13.8 mph 18.4 mph 0.06 in Rain Heavy Rain
10:10 PM 33.8 °F 25.8 °F 33.8 °F 100% 30.13 in 2.5 mi NNE 10.4 mph 18.4 mph 0.11 in Rain Heavy Rain
10:48 PM 33.8 °F 25.3 °F 33.8 °F 100% 30.15 in 3.0 mi North 11.5 mph - 0.31 in Rain Rain
10:55 PM 34.0 °F 26.6 °F 32.0 °F 92% 30.16 in 5.0 mi NNE 9.2 mph - 0.31 in Rain Light Rain
11:24 PM 33.8 °F 24.8 °F 32.0 °F 93% 30.14 in 10.0 mi North 12.7 mph - 0.01 in   Overcast
11:47 PM 33.8 °F 25.3 °F 30.2 °F 87% 30.14 in 5.0 mi NNE 11.5 mph 17.3 mph 0.02 in Rain Light Rain
11:55 PM 33.1 °F 24.9 °F 30.9 °F 92% 30.16 in 6.0 mi North 10.4 mph - 0.02 in Rain Light Rain